| time (UTC) | temp F | wind direction | speed MPH | gust MPH | rain 1hr in | rain 24hr in | rain mn in | humidity % | barometer mb |
| 20260906105527 | 86 | 86 | 1.0 | 5.0 | 0.00 | 0.00 | 0.00 | 64 | 1019.5 |
| 20260906105031 | 86 | 360 | 1.0 | 5.0 | 0.00 | 0.00 | 0.00 | 61 | 1019.5 |
| 20260906104530 | 86 | 99 | 2.0 | 5.0 | 0.00 | 0.00 | 0.00 | 61 | 1019.6 |
| 20260906104027 | 86 | 154 | 1.0 | 4.0 | 0.00 | 0.00 | 0.00 | 62 | 1019.6 |
| 20260906103527 | 86 | 63 | 2.0 | 4.0 | 0.00 | 0.00 | 0.00 | 64 | 1019.6 |
| 20260906103025 | 87 | 98 | 1.0 | 5.0 | 0.00 | 0.00 | 0.00 | 60 | 1019.6 |
| 20260906102524 | 86 | 130 | 0.0 | 5.0 | 0.00 | 0.00 | 0.00 | 61 | 1019.7 |
| 20260906102028 | 86 | 355 | 1.0 | 6.0 | 0.00 | 0.00 | 0.00 | 62 | 1019.7 |
| 20260906101523 | 86 | 126 | 1.0 | 4.0 | 0.00 | 0.00 | 0.00 | 60 | 1019.7 |
| 20260906101021 | 86 | 128 | 1.0 | 6.0 | 0.00 | 0.00 | 0.00 | 61 | 1019.7 |
| 20260906100521 | 86 | 149 | 2.0 | 7.0 | 0.00 | 0.00 | 0.00 | 61 | 1019.6 |
| 20260906100021 | 86 | 39 | 1.0 | 7.0 | 0.00 | 0.00 | 0.00 | 62 | 1019.7 |
| 20260906095519 | 85 | 73 | 1.0 | 8.0 | 0.00 | 0.00 | 0.00 | 61 | 1019.8 |
| 20260906095018 | 85 | 98 | 2.0 | 8.0 | 0.00 | 0.00 | 0.00 | 61 | 1019.8 |
| 20260906094518 | 85 | 40 | 2.0 | 7.0 | 0.00 | 0.00 | 0.00 | 63 | 1019.9 |
| 20260906094016 | 85 | 89 | 2.0 | 6.0 | 0.00 | 0.00 | 0.00 | 62 | 1019.9 |
| 20260906093518 | 85 | 45 | 2.0 | 7.0 | 0.00 | 0.00 | 0.00 | 63 | 1019.9 |
| 20260906093014 | 85 | 57 | 2.0 | 7.0 | 0.00 | 0.00 | 0.00 | 63 | 1019.9 |
| 20260906092514 | 85 | 83 | 2.0 | 7.0 | 0.00 | 0.00 | 0.00 | 63 | 1019.9 |
| 20260906092016 | 84 | 183 | 1.0 | 6.0 | 0.00 | 0.00 | 0.00 | 64 | 1019.9 |
| 20260906091524 | 84 | 129 | 2.0 | 6.0 | 0.00 | 0.00 | 0.00 | 63 | 1019.9 |
| 20260906091010 | 84 | 5 | 2.0 | 9.0 | 0.00 | 0.00 | 0.00 | 64 | 1019.9 |
| 20260906090509 | 84 | 30 | 3.0 | 9.0 | 0.00 | 0.00 | 0.00 | 63 | 1019.9 |
| 20260906090008 | 84 | 355 | 1.0 | 6.0 | 0.00 | 0.00 | 0.00 | 65 | 1019.9 |
| 20260906085509 | 83 | 321 | 2.0 | 8.0 | 0.00 | 0.00 | 0.00 | 65 | 1019.9 |
| 20260906085006 | 83 | 5 | 2.0 | 8.0 | 0.00 | 0.00 | 0.00 | 63 | 1019.9 |
| 20260906084505 | 83 | 51 | 1.0 | 6.0 | 0.00 | 0.00 | 0.00 | 64 | 1019.9 |
| 20260906084007 | 82 | 126 | 2.0 | 8.0 | 0.00 | 0.00 | 0.00 | 64 | 1019.9 |
| 20260906083502 | 82 | 119 | 2.0 | 8.0 | 0.00 | 0.00 | 0.00 | 64 | 1019.9 |
| 20260906083101 | 83 | 77 | 1.0 | 7.0 | 0.00 | 0.00 | 0.00 | 64 | 1019.9 |
| 20260906082559 | 82 | 67 | 2.0 | 10.0 | 0.00 | 0.00 | 0.00 | 65 | 1019.8 |
| 20260906082058 | 82 | 21 | 3.0 | 10.0 | 0.00 | 0.00 | 0.00 | 65 | 1019.9 |
| 20260906081607 | 81 | 65 | 2.0 | 7.0 | 0.00 | 0.00 | 0.00 | 65 | 1019.9 |
| 20260906081057 | 82 | 19 | 2.0 | 8.0 | 0.00 | 0.00 | 0.00 | 66 | 1019.8 |
| 20260906080554 | 81 | 5 | 2.0 | 9.0 | 0.00 | 0.00 | 0.00 | 65 | 1019.8 |
| 20260906080053 | 80 | 355 | 3.0 | 12.0 | 0.00 | 0.00 | 0.00 | 66 | 1019.8 |
| 20260906075552 | 80 | 86 | 4.0 | 12.0 | 0.00 | 0.00 | 0.00 | 65 | 1019.8 |
| 20260906075050 | 80 | 96 | 2.0 | 9.0 | 0.00 | 0.00 | 0.00 | 67 | 1019.8 |
| 20260906074607 | 80 | 40 | 4.0 | 9.0 | 0.00 | 0.00 | 0.00 | 69 | 1019.7 |
| 20260906074048 | 79 | 109 | 3.0 | 10.0 | 0.00 | 0.00 | 0.00 | 69 | 1019.7 |
| 20260906073547 | 79 | 355 | 5.0 | 11.0 | 0.00 | 0.00 | 0.00 | 69 | 1019.6 |
| 20260906073045 | 79 | 14 | 5.0 | 11.0 | 0.00 | 0.00 | 0.00 | 69 | 1019.5 |
| 20260906072544 | 79 | 17 | 4.0 | 10.0 | 0.00 | 0.00 | 0.00 | 69 | 1019.5 |
| 20260906072045 | 79 | 5 | 2.0 | 8.0 | 0.00 | 0.00 | 0.00 | 70 | 1019.5 |
| 20260906071541 | 78 | 346 | 3.0 | 8.0 | 0.00 | 0.00 | 0.00 | 71 | 1019.5 |
| 20260906071040 | 78 | 15 | 3.0 | 9.0 | 0.00 | 0.00 | 0.00 | 71 | 1019.5 |
| 20260906070538 | 78 | 360 | 3.0 | 7.0 | 0.00 | 0.00 | 0.00 | 71 | 1019.4 |
| 20260906070037 | 78 | 11 | 2.0 | 6.0 | 0.00 | 0.00 | 0.00 | 71 | 1019.4 |
| 20260906065537 | 77 | 16 | 0.0 | 5.0 | 0.00 | 0.00 | 0.00 | 73 | 1019.5 |
| 20260906065037 | 77 | 12 | 2.0 | 6.0 | 0.00 | 0.00 | 0.00 | 73 | 1019.4 |
| 20260906064534 | 77 | 9 | 2.0 | 6.0 | 0.00 | 0.00 | 0.00 | 72 | 1019.3 |
| 20260906064032 | 76 | 66 | 2.0 | 5.0 | 0.00 | 0.00 | 0.00 | 73 | 1019.3 |
| 20260906063532 | 76 | 11 | 2.0 | 5.0 | 0.00 | 0.00 | 0.00 | 74 | 1019.3 |
| 20260906063030 | 76 | 43 | 1.0 | 4.0 | 0.00 | 0.00 | 0.00 | 74 | 1019.2 |
| 20260906062529 | 76 | 17 | 1.0 | 3.0 | 0.00 | 0.00 | 0.00 | 75 | 1019.2 |
| 20260906062030 | 75 | 61 | 1.0 | 4.0 | 0.00 | 0.00 | 0.00 | 76 | 1019.1 |
| 20260906061526 | 75 | 11 | 2.0 | 5.0 | 0.00 | 0.00 | 0.00 | 76 | 1019.0 |
| 20260906061024 | 74 | 34 | 2.0 | 5.0 | 0.00 | 0.00 | 0.00 | 76 | 1018.9 |
| 20260906060523 | 74 | 23 | 2.0 | 5.0 | 0.00 | 0.00 | 0.00 | 77 | 1018.8 |
| 20260906060027 | 74 | 26 | 0.0 | 4.0 | 0.00 | 0.00 | 0.00 | 78 | 1018.7 |
| 20260906055520 | 74 | 5 | 1.0 | 5.0 | 0.00 | 0.00 | 0.00 | 78 | 1018.7 |
| 20260906055019 | 73 | 17 | 2.0 | 5.0 | 0.00 | 0.00 | 0.00 | 78 | 1018.7 |
| 20260906054522 | 73 | 5 | 2.0 | 5.0 | 0.00 | 0.00 | 0.00 | 78 | 1018.6 |
| 20260906054017 | 73 | 360 | 1.0 | 5.0 | 0.00 | 0.00 | 0.00 | 78 | 1018.5 |
| 20260906053516 | 73 | 15 | 1.0 | 6.0 | 0.00 | 0.00 | 0.00 | 79 | 1018.4 |
| 20260906053021 | 73 | 32 | 1.0 | 6.0 | 0.00 | 0.00 | 0.00 | 79 | 1018.3 |
| 20260906052514 | 73 | 34 | 1.0 | 6.0 | 0.00 | 0.00 | 0.00 | 79 | 1018.3 |
| 20260906052014 | 73 | 26 | 2.0 | 6.0 | 0.00 | 0.00 | 0.00 | 79 | 1018.3 |
| 20260906051516 | 73 | 348 | 2.0 | 5.0 | 0.00 | 0.00 | 0.00 | 79 | 1018.3 |
| 20260906051012 | 73 | 360 | 2.0 | 8.0 | 0.00 | 0.00 | 0.00 | 78 | 1018.3 |
| 20260906050512 | 73 | 38 | 2.0 | 8.0 | 0.00 | 0.00 | 0.00 | 78 | 1018.2 |
| 20260906050028 | 73 | 43 | 2.0 | 6.0 | 0.00 | 0.00 | 0.00 | 78 | 1018.2 |
| 20260906045510 | 73 | 58 | 1.0 | 6.0 | 0.00 | 0.00 | 0.00 | 78 | 1018.1 |
| 20260906045009 | 73 | 13 | 2.0 | 6.0 | 0.00 | 0.00 | 0.00 | 78 | 1018.1 |
| 20260906044512 | 73 | 40 | 2.0 | 5.0 | 0.00 | 0.00 | 0.00 | 78 | 1018.1 |
| 20260906044011 | 73 | 69 | 2.0 | 10.0 | 0.00 | 0.00 | 0.00 | 78 | 1017.9 |
| 20260906043508 | 73 | 29 | 2.0 | 10.0 | 0.00 | 0.00 | 0.00 | 78 | 1017.9 |
| 20260906043008 | 73 | 5 | 3.0 | 6.0 | 0.00 | 0.00 | 0.00 | 78 | 1017.9 |
| 20260906042506 | 73 | 5 | 2.0 | 5.0 | 0.00 | 0.00 | 0.00 | 79 | 1017.9 |
| 20260906042006 | 73 | 14 | 1.0 | 5.0 | 0.00 | 0.00 | 0.00 | 79 | 1017.8 |
| 20260906041512 | 73 | 20 | 2.0 | 5.0 | 0.00 | 0.00 | 0.00 | 79 | 1017.8 |
| 20260906041006 | 73 | 17 | 2.0 | 5.0 | 0.00 | 0.00 | 0.00 | 79 | 1017.8 |
| 20260906040508 | 73 | 22 | 1.0 | 4.0 | 0.00 | 0.00 | 0.00 | 79 | 1017.8 |
| 20260906040005 | 73 | 30 | 1.0 | 5.0 | 0.00 | 0.00 | 0.00 | 79 | 1017.7 |
| 20260906035504 | 73 | 21 | 1.0 | 6.0 | 0.00 | 0.00 | 0.00 | 79 | 1017.6 |
| 20260906035003 | 73 | 336 | 2.0 | 8.0 | 0.00 | 0.00 | 0.00 | 79 | 1017.5 |
| 20260906034503 | 73 | 24 | 3.0 | 8.0 | 0.00 | 0.00 | 0.00 | 80 | 1017.5 |
| 20260906034002 | 74 | 23 | 2.0 | 6.0 | 0.00 | 0.00 | 0.00 | 80 | 1017.5 |
| 20260906033502 | 74 | 360 | 2.0 | 6.0 | 0.00 | 0.00 | 0.00 | 80 | 1017.4 |
| 20260906033101 | 74 | 36 | 1.0 | 8.0 | 0.00 | 0.00 | 0.00 | 80 | 1017.4 |
| 20260906032600 | 74 | 29 | 1.0 | 8.0 | 0.00 | 0.00 | 0.00 | 80 | 1017.4 |
| 20260906032100 | 74 | 25 | 3.0 | 6.0 | 0.00 | 0.00 | 0.00 | 80 | 1017.3 |
| 20260906031604 | 74 | 19 | 1.0 | 6.0 | 0.00 | 0.00 | 0.00 | 80 | 1017.3 |
| 20260906031100 | 74 | 24 | 2.0 | 6.0 | 0.00 | 0.00 | 0.00 | 80 | 1017.3 |
| 20260906030559 | 74 | 38 | 1.0 | 6.0 | 0.00 | 0.00 | 0.00 | 81 | 1017.3 |
| 20260906030058 | 74 | 93 | 1.0 | 5.0 | 0.00 | 0.00 | 0.00 | 81 | 1017.2 |
| 20260906025558 | 74 | 5 | 1.0 | 5.0 | 0.00 | 0.00 | 0.00 | 82 | 1017.2 |
| 20260906025058 | 74 | 11 | 1.0 | 6.0 | 0.00 | 0.00 | 0.00 | 83 | 1017.2 |
| 20260906024558 | 74 | 51 | 1.0 | 6.0 | 0.00 | 0.00 | 0.00 | 84 | 1017.1 |
| 20260906024056 | 74 | 14 | 2.0 | 6.0 | 0.00 | 0.00 | 0.00 | 85 | 1017.1 |
| 20260906023556 | 74 | 26 | 1.0 | 5.0 | 0.00 | 0.00 | 0.00 | 86 | 1017.1 |
| 20260906023055 | 74 | 40 | 1.0 | 6.0 | 0.00 | 0.00 | 0.00 | 87 | 1017.1 |
| 20260906022554 | 74 | 117 | 1.0 | 6.0 | 0.00 | 0.00 | 0.00 | 88 | 1017.1 |
| 20260906022056 | 74 | 51 | 1.0 | 9.0 | 0.00 | 0.00 | 0.00 | 88 | 1017.1 |
| 20260906021554 | 74 | 15 | 2.0 | 9.0 | 0.00 | 0.00 | 0.00 | 89 | 1017.0 |
| 20260906021054 | 75 | 19 | 4.0 | 8.0 | 0.00 | 0.00 | 0.00 | 89 | 1017.1 |
| 20260906020552 | 75 | 5 | 3.0 | 6.0 | 0.00 | 0.00 | 0.00 | 89 | 1017.0 |
| 20260906020100 | 75 | 11 | 3.0 | 8.0 | 0.00 | 0.00 | 0.00 | 89 | 1017.0 |
| 20260906015552 | 75 | 360 | 3.0 | 6.0 | 0.00 | 0.00 | 0.00 | 89 | 1017.0 |
| 20260906015053 | 75 | 360 | 2.0 | 9.0 | 0.00 | 0.00 | 0.00 | 89 | 1017.0 |
| 20260906014552 | 75 | 23 | 3.0 | 9.0 | 0.00 | 0.00 | 0.00 | 89 | 1017.0 |
| 20260906014052 | 75 | 17 | 2.0 | 8.0 | 0.00 | 0.00 | 0.00 | 89 | 1017.0 |
| 20260906013555 | 75 | 10 | 2.0 | 8.0 | 0.00 | 0.00 | 0.00 | 89 | 1017.0 |
| 20260906013051 | 75 | 327 | 3.0 | 9.0 | 0.00 | 0.00 | 0.00 | 89 | 1017.0 |
| 20260906012551 | 75 | 22 | 2.0 | 9.0 | 0.00 | 0.00 | 0.00 | 89 | 1016.9 |
| 20260906012050 | 75 | 9 | 3.0 | 6.0 | 0.00 | 0.00 | 0.00 | 90 | 1017.0 |
| 20260906011550 | 75 | 360 | 3.0 | 8.0 | 0.00 | 0.00 | 0.00 | 90 | 1017.1 |
| 20260906011049 | 75 | 355 | 2.0 | 8.0 | 0.00 | 0.00 | 0.00 | 90 | 1016.9 |
| 20260906010549 | 76 | 51 | 2.0 | 8.0 | 0.00 | 0.00 | 0.00 | 90 | 1016.9 |
| 20260906010049 | 76 | 24 | 3.0 | 8.0 | 0.00 | 0.00 | 0.00 | 90 | 1016.8 |
| 20260906005549 | 76 | 15 | 2.0 | 8.0 | 0.00 | 0.00 | 0.00 | 90 | 1016.8 |
| 20260906005050 | 76 | 15 | 3.0 | 8.0 | 0.00 | 0.00 | 0.00 | 90 | 1016.8 |
| 20260906004549 | 76 | 17 | 3.0 | 8.0 | 0.00 | 0.00 | 0.00 | 90 | 1016.8 |
| 20260906004048 | 76 | 5 | 3.0 | 8.0 | 0.00 | 0.00 | 0.00 | 91 | 1016.8 |
| 20260906003549 | 76 | 22 | 2.0 | 6.0 | 0.00 | 0.00 | 0.00 | 91 | 1016.8 |
| 20260906003048 | 76 | 348 | 2.0 | 9.0 | 0.00 | 0.00 | 0.00 | 91 | 1016.8 |
| 20260906002548 | 76 | 360 | 2.0 | 9.0 | 0.00 | 0.00 | 0.00 | 91 | 1016.8 |
| 20260906002048 | 76 | 340 | 3.0 | 6.0 | 0.00 | 0.00 | 0.00 | 91 | 1016.8 |
| 20260906001547 | 76 | 26 | 2.0 | 5.0 | 0.00 | 0.00 | 0.00 | 90 | 1016.9 |
| 20260906001048 | 76 | 34 | 1.0 | 4.0 | 0.00 | 0.00 | 0.00 | 90 | 1016.9 |
| 20260906000547 | 76 | 5 | 1.0 | 4.0 | 0.00 | 0.00 | 0.00 | 90 | 1017.0 |
| 20260906000047 | 76 | 9 | 1.0 | 5.0 | 0.00 | 0.00 | 0.00 | 90 | 1017.0 |
| 20260905235546 | 76 | 5 | 2.0 | 6.0 | 0.00 | 0.00 | 0.00 | 90 | 1017.0 |
| 20260905235048 | 75 | 22 | 2.0 | 8.0 | 0.00 | 0.00 | 0.00 | 90 | 1017.0 |
| 20260905234546 | 75 | 26 | 1.0 | 8.0 | 0.00 | 0.00 | 0.00 | 90 | 1016.9 |
| 20260905234045 | 75 | 40 | 2.0 | 5.0 | 0.00 | 0.00 | 0.00 | 90 | 1016.9 |
| 20260905233545 | 76 | 24 | 1.0 | 4.0 | 0.00 | 0.00 | 0.00 | 90 | 1016.9 |
| 20260905233048 | 75 | 32 | 1.0 | 4.0 | 0.00 | 0.00 | 0.00 | 90 | 1016.8 |
| 20260905232544 | 75 | 16 | 2.0 | 3.0 | 0.00 | 0.00 | 0.00 | 90 | 1016.7 |
| 20260905232044 | 75 | 17 | 1.0 | 3.0 | 0.00 | 0.00 | 0.00 | 90 | 1016.7 |
| 20260905231544 | 75 | 26 | 0.0 | 1.0 | 0.00 | 0.00 | 0.00 | 90 | 1016.7 |
| 20260905231043 | 75 | 26 | 0.0 | 3.0 | 0.00 | 0.00 | 0.00 | 90 | 1016.7 |
| 20260905230543 | 75 | 27 | 0.0 | 3.0 | 0.00 | 0.00 | 0.00 | 90 | 1016.6 |
| 20260905230049 | 75 | 26 | 0.0 | 2.0 | 0.00 | 0.00 | 0.00 | 91 | 1016.6 |
| 20260905225541 | 75 | 26 | 0.0 | 2.0 | 0.00 | 0.00 | 0.00 | 91 | 1016.5 |
| 20260905225043 | 75 | 27 | 0.0 | 3.0 | 0.00 | 0.00 | 0.00 | 91 | 1016.5 |
| 20260905224558 | 75 | 28 | 0.0 | 3.0 | 0.00 | 0.00 | 0.00 | 91 | 1016.4 |
| 20260905224040 | 75 | 32 | 1.0 | 4.0 | 0.00 | 0.00 | 0.00 | 91 | 1016.5 |
| 20260905223540 | 75 | 26 | 1.0 | 3.0 | 0.00 | 0.00 | 0.00 | 91 | 1016.4 |
| 20260905223039 | 75 | 38 | 0.0 | 4.0 | 0.00 | 0.00 | 0.00 | 91 | 1016.3 |
| 20260905222539 | 75 | 40 | 1.0 | 5.0 | 0.00 | 0.00 | 0.00 | 91 | 1016.3 |
| 20260905222038 | 75 | 23 | 2.0 | 5.0 | 0.00 | 0.00 | 0.00 | 91 | 1016.3 |
| 20260905221552 | 75 | 85 | 0.0 | 2.0 | 0.00 | 0.00 | 0.00 | 91 | 1016.3 |
| 20260905221038 | 75 | 85 | 0.0 | 2.0 | 0.00 | 0.00 | 0.00 | 91 | 1016.3 |
| 20260905220537 | 76 | 86 | 0.0 | 2.0 | 0.00 | 0.00 | 0.00 | 91 | 1016.2 |
| 20260905220040 | 76 | 93 | 0.0 | 2.0 | 0.00 | 0.00 | 0.00 | 91 | 1016.2 |
| 20260905215536 | 76 | 121 | 0.0 | 1.0 | 0.00 | 0.00 | 0.00 | 91 | 1016.2 |
| 20260905215035 | 76 | 121 | 0.0 | 1.0 | 0.00 | 0.00 | 0.00 | 90 | 1016.1 |
| 20260905214534 | 76 | 121 | 0.0 | 1.0 | 0.00 | 0.00 | 0.00 | 90 | 1016.1 |
| 20260905214034 | 76 | 121 | 0.0 | 2.0 | 0.00 | 0.00 | 0.00 | 90 | 1015.9 |
| 20260905213534 | 76 | 121 | 0.0 | 2.0 | 0.00 | 0.00 | 0.00 | 89 | 1015.8 |
| 20260905213033 | 76 | 121 | 0.0 | 0.0 | 0.00 | 0.00 | 0.00 | 88 | 1015.8 |
| 20260905212533 | 77 | 121 | 0.0 | 0.0 | 0.00 | 0.00 | 0.00 | 88 | 1015.7 |
| 20260905212032 | 77 | 121 | 0.0 | 0.0 | 0.00 | 0.00 | 0.00 | 88 | 1015.7 |
| 20260905211532 | 77 | 121 | 0.0 | 0.0 | 0.00 | 0.00 | 0.00 | 88 | 1015.7 |
| 20260905211031 | 77 | 121 | 0.0 | 0.0 | 0.00 | 0.00 | 0.00 | 87 | 1015.7 |
| 20260905210532 | 78 | 121 | 0.0 | 0.0 | 0.00 | 0.00 | 0.00 | 87 | 1015.6 |
| 20260905210031 | 78 | 121 | 0.0 | 0.0 | 0.00 | 0.00 | 0.00 | 86 | 1015.6 |
| 20260905205531 | 78 | 121 | 0.0 | 1.0 | 0.00 | 0.00 | 0.00 | 85 | 1015.6 |
| 20260905205031 | 79 | 121 | 0.0 | 2.0 | 0.00 | 0.00 | 0.00 | 84 | 1015.6 |
| 20260905204531 | 79 | 127 | 0.0 | 2.0 | 0.00 | 0.00 | 0.00 | 84 | 1015.5 |
| 20260905204029 | 79 | 160 | 0.0 | 3.0 | 0.00 | 0.00 | 0.00 | 84 | 1015.5 |
| 20260905203529 | 79 | 164 | 0.0 | 5.0 | 0.00 | 0.00 | 0.00 | 84 | 1015.4 |
| 20260905203031 | 79 | 157 | 1.0 | 6.0 | 0.00 | 0.00 | 0.00 | 84 | 1015.4 |
| 20260905202529 | 80 | 142 | 1.0 | 6.0 | 0.00 | 0.00 | 0.00 | 84 | 1015.4 |
| 20260905202027 | 80 | 136 | 1.0 | 4.0 | 0.00 | 0.00 | 0.00 | 84 | 1015.3 |
| 20260905201527 | 80 | 130 | 0.0 | 4.0 | 0.00 | 0.00 | 0.00 | 84 | 1015.3 |
| 20260905201026 | 80 | 140 | 1.0 | 5.0 | 0.00 | 0.00 | 0.00 | 84 | 1015.2 |
| 20260905200528 | 80 | 117 | 2.0 | 5.0 | 0.00 | 0.00 | 0.00 | 84 | 1015.2 |
| 20260905200026 | 80 | 144 | 1.0 | 6.0 | 0.00 | 0.00 | 0.00 | 84 | 1015.1 |
| 20260905195524 | 80 | 157 | 2.0 | 6.0 | 0.00 | 0.00 | 0.00 | 84 | 1015.1 |
| 20260905195027 | 80 | 115 | 2.0 | 4.0 | 0.00 | 0.00 | 0.00 | 83 | 1015.1 |
| 20260905194524 | 81 | 161 | 1.0 | 7.0 | 0.00 | 0.00 | 0.00 | 82 | 1015.1 |
| 20260905194025 | 81 | 110 | 2.0 | 7.0 | 0.00 | 0.00 | 0.00 | 81 | 1015.0 |
| 20260905193522 | 81 | 155 | 1.0 | 6.0 | 0.00 | 0.00 | 0.00 | 79 | 1014.9 |
| 20260905193026 | 81 | 112 | 2.0 | 6.0 | 0.00 | 0.00 | 0.00 | 77 | 1014.9 |
| 20260905192521 | 82 | 143 | 2.0 | 5.0 | 0.00 | 0.00 | 0.00 | 75 | 1014.7 |
| 20260905192020 | 82 | 107 | 1.0 | 6.0 | 0.00 | 0.00 | 0.00 | 72 | 1014.7 |
| 20260905191520 | 82 | 146 | 2.0 | 6.0 | 0.00 | 0.00 | 0.00 | 70 | 1014.6 |
| 20260905191023 | 82 | 138 | 2.0 | 7.0 | 0.00 | 0.00 | 0.00 | 68 | 1014.5 |
| 20260905190523 | 81 | 167 | 0.0 | 5.0 | 0.00 | 0.00 | 0.00 | 67 | 1014.4 |
| 20260905190020 | 81 | 269 | 0.0 | 0.0 | 0.00 | 0.00 | 0.00 | 68 | 1014.4 |
| 20260905185519 | 81 | 269 | 0.0 | 0.0 | 0.00 | 0.00 | 0.00 | 67 | 1014.3 |
| 20260905185020 | 81 | 269 | 0.0 | 0.0 | 0.00 | 0.00 | 0.00 | 67 | 1014.2 |
| 20260905184520 | 81 | 269 | 0.0 | 0.0 | 0.00 | 0.00 | 0.00 | 67 | 1014.1 |
| 20260905184020 | 81 | 269 | 0.0 | 0.0 | 0.00 | 0.00 | 0.00 | 66 | 1014.0 |
| 20260905183520 | 81 | 269 | 0.0 | 0.0 | 0.00 | 0.00 | 0.00 | 67 | 1014.0 |
| 20260905183018 | 81 | 269 | 0.0 | 0.0 | 0.00 | 0.00 | 0.00 | 67 | 1013.8 |
| 20260905182521 | 81 | 269 | 0.0 | 0.0 | 0.00 | 0.00 | 0.00 | 67 | 1013.8 |
| 20260905182019 | 82 | 269 | 0.0 | 0.0 | 0.00 | 0.00 | 0.00 | 67 | 1013.7 |
| 20260905181518 | 82 | 269 | 0.0 | 0.0 | 0.00 | 0.00 | 0.00 | 67 | 1013.6 |
| 20260905181018 | 82 | 269 | 0.0 | 0.0 | 0.00 | 0.00 | 0.00 | 67 | 1013.5 |
| 20260905180519 | 82 | 269 | 0.0 | 0.0 | 0.00 | 0.00 | 0.00 | 67 | 1013.5 |
| 20260905180018 | 83 | 269 | 0.0 | 0.0 | 0.00 | 0.00 | 0.00 | 67 | 1013.5 |
| 20260905175518 | 83 | 269 | 0.0 | 0.0 | 0.00 | 0.00 | 0.00 | 65 | 1013.5 |
| 20260905175018 | 84 | 269 | 0.0 | 0.0 | 0.00 | 0.00 | 0.00 | 66 | 1013.5 |
| 20260905174524 | 84 | 269 | 0.0 | 0.0 | 0.00 | 0.00 | 0.00 | 65 | 1013.4 |
| 20260905174022 | 84 | 269 | 0.0 | 0.0 | 0.00 | 0.00 | 0.00 | 65 | 1013.4 |
| 20260905173518 | 84 | 269 | 0.0 | 0.0 | 0.00 | 0.00 | 0.00 | 65 | 1013.3 |
| 20260905173025 | 85 | 269 | 0.0 | 0.0 | 0.00 | 0.00 | 0.00 | 64 | 1013.3 |
| 20260905172517 | 85 | 269 | 0.0 | 0.0 | 0.00 | 0.00 | 0.00 | 64 | 1013.3 |
| 20260905172017 | 85 | 269 | 0.0 | 0.0 | 0.00 | 0.00 | 0.00 | 64 | 1013.2 |
| 20260905171529 | 85 | 269 | 0.0 | 0.0 | 0.00 | 0.00 | 0.00 | 67 | 1013.2 |
| 20260905171016 | 86 | 269 | 0.0 | 0.0 | 0.00 | 0.00 | 0.00 | 64 | 1013.2 |
| 20260905170517 | 87 | 269 | 0.0 | 0.0 | 0.00 | 0.00 | 0.00 | 62 | 1013.1 |
| 20260905170017 | 88 | 269 | 0.0 | 1.0 | 0.00 | 0.00 | 0.00 | 60 | 1013.1 |
| 20260905165520 | 88 | 269 | 0.0 | 1.0 | 0.00 | 0.00 | 0.00 | 58 | 1013.1 |
| 20260905165016 | 89 | 269 | 0.0 | 2.0 | 0.00 | 0.00 | 0.00 | 60 | 1013.1 |
| 20260905164516 | 90 | 269 | 0.0 | 2.0 | 0.00 | 0.00 | 0.00 | 55 | 1013.0 |
| 20260905164015 | 90 | 269 | 0.0 | 2.0 | 0.00 | 0.00 | 0.00 | 54 | 1013.0 |
| 20260905163516 | 90 | 269 | 0.0 | 2.0 | 0.00 | 0.00 | 0.00 | 52 | 1013.0 |
| 20260905163016 | 91 | 279 | 0.0 | 1.0 | 0.00 | 0.00 | 0.00 | 59 | 1013.0 |
| 20260905162518 | 90 | 279 | 0.0 | 2.0 | 0.00 | 0.00 | 0.00 | 53 | 1013.0 |
| 20260905162015 | 90 | 269 | 0.0 | 3.0 | 0.00 | 0.00 | 0.00 | 55 | 1012.9 |
| 20260905161515 | 91 | 268 | 0.0 | 3.0 | 0.00 | 0.00 | 0.00 | 52 | 1012.9 |
| 20260905161015 | 91 | 248 | 0.0 | 3.0 | 0.00 | 0.00 | 0.00 | 51 | 1012.9 |
| 20260905160514 | 91 | 246 | 0.0 | 3.0 | 0.00 | 0.00 | 0.00 | 52 | 1012.9 |
| 20260905160019 | 91 | 252 | 0.0 | 1.0 | 0.00 | 0.00 | 0.00 | 50 | 1012.9 |
| 20260905155514 | 91 | 290 | 0.0 | 2.0 | 0.00 | 0.00 | 0.00 | 54 | 1012.9 |
| 20260905155018 | 91 | 290 | 0.0 | 2.0 | 0.00 | 0.00 | 0.00 | 55 | 1012.8 |
| 20260905154514 | 91 | 290 | 0.0 | 4.0 | 0.00 | 0.00 | 0.00 | 53 | 1012.8 |
| 20260905154014 | 92 | 249 | 1.0 | 4.0 | 0.00 | 0.00 | 0.00 | 50 | 1012.7 |
| 20260905153514 | 92 | 198 | 0.0 | 2.0 | 0.00 | 0.00 | 0.00 | 51 | 1012.7 |
| 20260905153020 | 92 | 169 | 0.0 | 2.0 | 0.00 | 0.00 | 0.00 | 51 | 1012.8 |
| 20260905152513 | 91 | 272 | 0.0 | 3.0 | 0.00 | 0.00 | 0.00 | 50 | 1012.7 |
| 20260905152013 | 91 | 324 | 0.0 | 6.0 | 0.00 | 0.00 | 0.00 | 53 | 1012.6 |
| 20260905151513 | 90 | 259 | 2.0 | 6.0 | 0.00 | 0.00 | 0.00 | 52 | 1012.7 |
| 20260905151012 | 90 | 286 | 2.0 | 6.0 | 0.00 | 0.00 | 0.00 | 53 | 1012.7 |
| 20260905150512 | 91 | 323 | 2.0 | 4.0 | 0.00 | 0.00 | 0.00 | 54 | 1012.7 |
| 20260905150012 | 91 | 282 | 0.0 | 2.0 | 0.00 | 0.00 | 0.00 | 52 | 1012.7 |
| 20260905145512 | 91 | 286 | 0.0 | 2.0 | 0.00 | 0.00 | 0.00 | 49 | 1012.7 |
| 20260905145014 | 91 | 286 | 1.0 | 3.0 | 0.00 | 0.00 | 0.00 | 49 | 1012.8 |
| 20260905144513 | 92 | 229 | 1.0 | 7.0 | 0.00 | 0.00 | 0.00 | 50 | 1012.9 |
| 20260905144014 | 92 | 265 | 3.0 | 9.0 | 0.00 | 0.00 | 0.00 | 50 | 1013.0 |
| 20260905143511 | 91 | 232 | 1.0 | 9.0 | 0.00 | 0.00 | 0.00 | 51 | 1012.9 |
| 20260905143011 | 92 | 219 | 1.0 | 4.0 | 0.00 | 0.00 | 0.00 | 50 | 1012.9 |
| 20260905142510 | 91 | 302 | 1.0 | 6.0 | 0.00 | 0.00 | 0.00 | 49 | 1013.0 |
| 20260905142010 | 91 | 274 | 2.0 | 6.0 | 0.00 | 0.00 | 0.00 | 50 | 1013.0 |
| 20260905141510 | 91 | 286 | 2.0 | 5.0 | 0.00 | 0.00 | 0.00 | 50 | 1013.0 |
| 20260905141012 | 92 | 209 | 0.0 | 6.0 | 0.00 | 0.00 | 0.00 | 51 | 1013.0 |
| 20260905140509 | 91 | 245 | 2.0 | 7.0 | 0.00 | 0.00 | 0.00 | 51 | 1013.1 |
| 20260905140010 | 91 | 268 | 1.0 | 4.0 | 0.00 | 0.00 | 0.00 | 53 | 1013.1 |
| 20260905135508 | 90 | 327 | 1.0 | 5.0 | 0.00 | 0.00 | 0.00 | 53 | 1013.1 |
| 20260905135009 | 91 | 234 | 0.0 | 6.0 | 0.00 | 0.00 | 0.00 | 52 | 1013.2 |
| 20260905134508 | 90 | 302 | 3.0 | 6.0 | 0.00 | 0.00 | 0.00 | 52 | 1013.4 |
| 20260905134011 | 91 | 221 | 2.0 | 8.0 | 0.00 | 0.00 | 0.00 | 51 | 1013.3 |
| 20260905133506 | 91 | 317 | 2.0 | 8.0 | 0.00 | 0.00 | 0.00 | 55 | 1013.3 |
| 20260905133010 | 91 | 249 | 2.0 | 8.0 | 0.00 | 0.00 | 0.00 | 53 | 1013.4 |
| 20260905132507 | 91 | 219 | 3.0 | 8.0 | 0.00 | 0.00 | 0.00 | 51 | 1013.4 |
| 20260905132006 | 91 | 238 | 3.0 | 7.0 | 0.00 | 0.00 | 0.00 | 52 | 1013.5 |
| 20260905131504 | 90 | 266 | 1.0 | 5.0 | 0.00 | 0.00 | 0.00 | 55 | 1013.5 |
| 20260905131004 | 90 | 309 | 2.0 | 7.0 | 0.00 | 0.00 | 0.00 | 53 | 1013.5 |
| 20260905130505 | 90 | 252 | 2.0 | 7.0 | 0.00 | 0.00 | 0.00 | 52 | 1013.6 |
| 20260905130004 | 90 | 306 | 1.0 | 7.0 | 0.00 | 0.00 | 0.00 | 53 | 1013.7 |
| 20260905125504 | 90 | 322 | 3.0 | 9.0 | 0.00 | 0.00 | 0.00 | 53 | 1013.7 |
| 20260905125003 | 90 | 302 | 2.0 | 6.0 | 0.00 | 0.00 | 0.00 | 53 | 1013.9 |
| 20260905124503 | 90 | 234 | 2.0 | 5.0 | 0.00 | 0.00 | 0.00 | 53 | 1013.9 |
| 20260905124003 | 89 | 310 | 1.0 | 5.0 | 0.00 | 0.00 | 0.00 | 53 | 1013.9 |
| 20260905123503 | 89 | 346 | 2.0 | 8.0 | 0.00 | 0.00 | 0.00 | 55 | 1014.0 |
| 20260905123001 | 90 | 275 | 4.0 | 8.0 | 0.00 | 0.00 | 0.00 | 52 | 1014.0 |
| 20260905122505 | 89 | 321 | 2.0 | 7.0 | 0.00 | 0.00 | 0.00 | 55 | 1014.0 |
| 20260905122003 | 90 | 208 | 3.0 | 7.0 | 0.00 | 0.00 | 0.00 | 52 | 1014.0 |
| 20260905121502 | 89 | 265 | 3.0 | 8.0 | 0.00 | 0.00 | 0.00 | 52 | 1014.1 |
| 20260905121003 | 89 | 305 | 4.0 | 8.0 | 0.00 | 0.00 | 0.00 | 57 | 1014.2 |
| 20260905120502 | 90 | 309 | 2.0 | 10.0 | 0.00 | 0.00 | 0.00 | 53 | 1014.2 |
| 20260905120118 | 90 | 221 | 2.0 | 10.0 | 0.00 | 0.00 | 0.00 | 54 | 1014.1 |
| 20260905115600 | 89 | 233 | 4.0 | 10.0 | 0.00 | 0.00 | 0.00 | 55 | 1014.1 |
| 20260905115103 | 89 | 207 | 2.0 | 8.0 | 0.00 | 0.00 | 0.00 | 55 | 1014.3 |
| 20260905114559 | 89 | 330 | 2.0 | 7.0 | 0.00 | 0.00 | 0.00 | 55 | 1014.3 |
| 20260905114059 | 89 | 293 | 3.0 | 9.0 | 0.00 | 0.00 | 0.00 | 54 | 1014.2 |
| 20260905113558 | 89 | 287 | 4.0 | 9.0 | 0.00 | 0.00 | 0.00 | 56 | 1014.2 |
| 20260905113057 | 88 | 320 | 4.0 | 9.0 | 0.00 | 0.00 | 0.00 | 58 | 1014.3 |
| 20260905112556 | 88 | 273 | 2.0 | 8.0 | 0.00 | 0.00 | 0.00 | 59 | 1014.3 |
| 20260905112055 | 88 | 264 | 3.0 | 9.0 | 0.00 | 0.00 | 0.00 | 58 | 1014.3 |
| 20260905111609 | 88 | 355 | 2.0 | 8.0 | 0.00 | 0.00 | 0.00 | 61 | 1014.3 |
| 20260905111054 | 88 | 340 | 3.0 | 8.0 | 0.00 | 0.00 | 0.00 | 61 | 1014.2 |
| 20260905110554 | 88 | 210 | 2.0 | 7.0 | 0.00 | 0.00 | 0.00 | 60 | 1014.3 |
| 20260905110058 | 88 | 284 | 3.0 | 8.0 | 0.00 | 0.00 | 0.00 | 61 | 1014.3 |